Regional Weather Roundup
Issued by NWS Northern Indiana

Home | Current Version | Previous Version | Text Only | Print | Product List | Glossary Off
Versions: 1 2 3 4 5 6 7 8 9 10 11 12 13 14 15 16 17 18 19 20 21 22 23 24 25 26 27 28 29 30 31 32 33 34 35 36 37 38 39 40 41 42 43 44 45 46 47 48 49 50

000
ASUS43 KIWX 021310
RWRIWX

KIWX WEATHER ROUNDUP
NATIONAL WEATHER SERVICE NORTHERN INDIANA
900 AM EDT THU OCT 02 2014

NOTE: "FAIR" INDICATES FEW OR NO CLOUDS BELOW 12,000 FEET WITH NO
SIGNIFICANT WEATHER AND/OR OBSTRUCTIONS TO VISIBILITY.

* THESE STATIONS ARE NOT UNDER NWS QUALITY CONTROL. THEY ALSO MAY NOT
  REPORT WEATHER SUCH AS PRECIPITATION OR FOG.

INZ001>027-021400-
NORTHERN INDIANA

CITY           SKY/WX    TMP DP  RH WIND       PRES   REMARKS
GARY*          CLOUDY    64  59  82 S7        29.90R
VALPARAISO     CLOUDY    62  58  86 S6        29.91F
MICHIGAN CITY* CLOUDY    61  54  77 S5        29.92S
LAPORTE*       CLOUDY    63  59  88 S5        29.92S
KNOX*          CLOUDY    61  57  87 S10       29.90F
SOUTH BEND     NOT AVBL
GOSHEN         CLOUDY    61  53  75 S8        29.96S
MONTICELLO*    RAIN      61  60  97 SE7       29.92F
LOGANSPORT*    RAIN      61  55  82 SE10      29.96F
ROCHESTER*     LGT RAIN  63  55  77 SE6       29.96F
WARSAW*        CLOUDY    61  52  72 S5        29.97S
ANGOLA*        PTSUNNY   57  52  82 S9        29.99S
FORT WAYNE     CLOUDY    58  52  80 SE5       30.00R
HUNTINGTON*    CLOUDY    58  54  84 CALM      29.99S
PERU/GRISSOM   LGT RAIN  62  62  99 S7        29.97S
MARION*        CLOUDY    61  53  75 CALM      30.00R

$$
INZ028>050-021400-
CENTRAL INDIANA

CITY           SKY/WX    TMP DP  RH WIND       PRES   REMARKS
LAFAYETTE      RAIN      63  62  97 SE9       29.92F FOG
KOKOMO*        CLOUDY    61  54  77 S6        29.99S
MUNCIE*        CLOUDY    64  54  69 S8        29.99R
INDIANAPOLIS   CLOUDY    62  56  80 NW6       30.01R

$$
MIZ043>046-050>051-056>058-064>065-071>073-077>080-021400-
SOUTHWEST LOWER MICHIGAN

CITY           SKY/WX    TMP DP  RH WIND       PRES   REMARKS
BATTLE CREEK   CLOUDY    59  51  75 SE8       29.96F
BENTON HARBOR  CLOUDY    59  55  87 SE9       29.91S
COLDWATER*     CLOUDY    60  52  75 SE8       29.97F
HILLSDALE*     CLOUDY    57  54  90 SE7       30.00F
GRAND RAPIDS   CLOUDY    60  54  80 SE7       29.94F
KALAMAZOO      CLOUDY    61  52  72 S6        29.96F
STURGIS*       CLOUDY    59  52  77 SE8       29.96S
THREE RIVERS*  PTSUNNY   60  53  76 SE6       29.97S

$$
OHZ001>008-015>018-024>025-021400-
NORTHWEST OHIO

CITY           SKY/WX    TMP DP  RH WIND       PRES   REMARKS
WAUSEON*       FAIR      57  54  88 SE7       30.02S FOG
DEFIANCE       PTSUNNY   58  51  78 S6        30.01F
FINDLAY        MOSUNNY   58  52  80 SE9       30.03S
TOLEDO EXPRESS PTSUNNY   55  53  93 SE3       30.02F FOG
TOLEDO METCALF MOSUNNY   56  52  86 SE8       30.04F
LIMA           MOSUNNY   63  54  72 S9        30.03S

$$
AND FOR LAKE MICHIGAN COASTAL AND OPEN LAKE BUOY OBSERVATIONS

STATION/POSITION TEMP    WIND        PRES    VSBY  WAVE
                 AIR SEA DIR/SP/G                  HT/PER
                 (F)     (DEG/KT/KT) (MB)    (MI)  (FT/S)
CALUMET HARBOR    65     180/  6/ 10 1011.3R
MICHIGAN CITY     63     150/ 13/ 16   N/A
SAINT JOSEPH      60      CALM  /  4 1013.5S
SOUTH LAKE BUOY   63 62  160/ 19/ 21 1011.8F         3/ 5
4 MI NW BRIDGMAN  63 63  140/ 10/ 14   N/A           1/ 2
MICHIGAN CITY     64 64  170/ 12/ 16   N/A           2/ 2
SAINT JOSEPH CG                      1012.8      6   1

$$
&&



USA.gov is the U.S. government's official web portal to all federal, state and local government web resources and services.